Time,TemperatureF,DewpointF,PressureIn,WindDirection,WindDirectionDegrees,WindSpeedMPH,WindSpeedGustMPH,Humidity,HourlyPrecipIn,Conditions,Clouds,dailyrainin,SoftwareType,DateUTC
2013-03-25 00:02:00,-3.0,-10.0,30.70,East,93,0.0,-999.0,71,-99.99,,,-99.99,,2013-03-25 06:02:00,
2013-03-25 00:12:00,-3.0,-10.0,30.70,East,93,0.0,-999.0,71,-99.99,,,-99.99,,2013-03-25 06:12:00,
2013-03-25 00:22:00,-3.0,-11.0,30.71,East,93,0.0,-999.0,68,-99.99,,,-99.99,,2013-03-25 06:22:00,
2013-03-25 00:32:00,-5.0,-12.0,30.71,East,93,0.0,-999.0,71,-99.99,,,-99.99,,2013-03-25 06:32:00,
2013-03-25 00:42:00,-5.0,-12.0,30.71,East,93,0.0,-999.0,71,-99.99,,,-99.99,,2013-03-25 06:42:00,
2013-03-25 00:52:00,-5.0,-11.0,30.71,East,90,0.0,-999.0,75,-99.99,,,-99.99,,2013-03-25 06:52:00,
2013-03-25 01:02:00,-3.0,-9.0,30.71,ENE,78,0.0,-999.0,73,-99.99,,,-99.99,,2013-03-25 07:02:00,
2013-03-25 01:12:00,-3.0,-9.0,30.71,ENE,78,0.0,-999.0,73,-99.99,,,-99.99,,2013-03-25 07:12:00,
2013-03-25 01:22:00,-3.0,-10.0,30.71,North,10,0.0,-999.0,70,-99.99,,,-99.99,,2013-03-25 07:22:00,
2013-03-25 01:32:00,-4.0,-11.0,30.71,ESE,120,0.0,-999.0,70,-99.99,,,-99.99,,2013-03-25 07:32:00,
2013-03-25 01:42:00,-4.0,-11.0,30.71,ESE,120,0.0,-999.0,70,-99.99,,,-99.99,,2013-03-25 07:42:00,
2013-03-25 01:52:00,-4.0,-10.0,30.71,WNW,297,0.0,-999.0,73,-99.99,,,-99.99,,2013-03-25 07:52:00,
2013-03-25 02:02:00,-3.0,-10.0,30.70,West,267,0.0,-999.0,71,-99.99,,,-99.99,,2013-03-25 08:02:00,
2013-03-25 02:12:00,-3.0,-10.0,30.70,West,267,0.0,-999.0,71,-99.99,,,-99.99,,2013-03-25 08:12:00,
2013-03-25 02:22:00,-3.0,-11.0,30.70,WNW,285,0.0,-999.0,69,-99.99,,,-99.99,,2013-03-25 08:22:00,
2013-03-25 02:32:00,-3.0,-11.0,30.70,NE,53,0.0,-999.0,68,-99.99,,,-99.99,,2013-03-25 08:32:00,
2013-03-25 02:43:00,-3.0,-11.0,30.70,NE,53,0.0,-999.0,68,-99.99,,,-99.99,,2013-03-25 08:43:00,
2013-03-25 02:52:00,-3.0,-11.0,30.70,SSW,209,1.0,-999.0,68,-99.99,,,-99.99,,2013-03-25 08:52:00,
2013-03-25 03:02:00,-2.0,-11.0,30.70,SSW,209,0.0,-999.0,66,-99.99,,,-99.99,,2013-03-25 09:02:00,
2013-03-25 03:12:00,-2.0,-11.0,30.70,SSW,209,0.0,-999.0,66,-99.99,,,-99.99,,2013-03-25 09:12:00,
2013-03-25 03:22:00,-3.0,-11.0,30.69,WNW,299,1.0,-999.0,67,-99.99,,,-99.99,,2013-03-25 09:22:00,
2013-03-25 03:33:00,-4.0,-12.0,30.69,WNW,299,0.0,-999.0,69,-99.99,,,-99.99,,2013-03-25 09:33:00,
2013-03-25 03:43:00,-4.0,-12.0,30.69,WNW,299,0.0,-999.0,69,-99.99,,,-99.99,,2013-03-25 09:43:00,
2013-03-25 03:52:00,-5.0,-12.0,30.69,WSW,244,0.0,-999.0,70,-99.99,,,-99.99,,2013-03-25 09:52:00,
2013-03-25 04:03:00,-6.0,-13.0,30.68,NW,304,0.0,-999.0,72,-99.99,,,-99.99,,2013-03-25 10:03:00,
2013-03-25 04:12:00,-6.0,-13.0,30.68,NW,304,0.0,-999.0,72,-99.99,,,-99.99,,2013-03-25 10:12:00,
2013-03-25 04:22:00,-6.0,-12.0,30.68,NW,311,0.0,-999.0,73,-99.99,,,-99.99,,2013-03-25 10:22:00,
2013-03-25 04:32:00,-6.0,-13.0,30.68,NW,311,0.0,-999.0,71,-99.99,,,-99.99,,2013-03-25 10:32:00,
2013-03-25 04:42:00,-6.0,-13.0,30.68,NW,311,0.0,-999.0,71,-99.99,,,-99.99,,2013-03-25 10:42:00,
2013-03-25 04:53:00,-7.0,-13.0,30.69,NW,311,0.0,-999.0,74,-99.99,,,-99.99,,2013-03-25 10:53:00,
2013-03-25 05:03:00,-7.0,-13.0,30.69,NW,313,0.0,-999.0,73,-99.99,,,-99.99,,2013-03-25 11:03:00,
2013-03-25 05:12:00,-7.0,-13.0,30.69,NW,313,0.0,-999.0,73,-99.99,,,-99.99,,2013-03-25 11:12:00,
2013-03-25 05:23:00,-7.0,-14.0,30.70,ENE,63,0.0,-999.0,72,-99.99,,,-99.99,,2013-03-25 11:23:00,
2013-03-25 05:32:00,-6.0,-12.0,30.70,NNW,338,0.0,-999.0,74,-99.99,,,-99.99,,2013-03-25 11:32:00,
2013-03-25 05:42:00,-6.0,-12.0,30.70,NNW,338,0.0,-999.0,74,-99.99,,,-99.99,,2013-03-25 11:42:00,
2013-03-25 05:52:00,-6.0,-12.0,30.70,NNW,338,0.0,-999.0,74,-99.99,,,-99.99,,2013-03-25 11:52:00,
2013-03-25 06:02:00,-7.0,-13.0,30.71,WNW,298,0.0,-999.0,73,-99.99,,,-99.99,,2013-03-25 12:02:00,
2013-03-25 06:13:00,-7.0,-13.0,30.71,WNW,298,0.0,-999.0,73,-99.99,,,-99.99,,2013-03-25 12:13:00,
2013-03-25 06:23:00,-5.0,-11.0,30.71,South,184,1.0,-999.0,74,-99.99,,,-99.99,,2013-03-25 12:23:00,
2013-03-25 06:32:00,-4.0,-11.0,30.70,SE,146,0.0,-999.0,72,-99.99,,,-99.99,,2013-03-25 12:32:00,
2013-03-25 06:42:00,-4.0,-11.0,30.70,SE,146,0.0,-999.0,72,-99.99,,,-99.99,,2013-03-25 12:42:00,
2013-03-25 06:52:00,-3.0,-10.0,30.71,WNW,290,1.0,-999.0,72,-99.99,,,-99.99,,2013-03-25 12:52:00,
2013-03-25 07:03:00,-2.0,-9.0,30.71,SW,216,1.0,-999.0,70,-99.99,,,-99.99,,2013-03-25 13:03:00,
2013-03-25 07:13:00,-2.0,-9.0,30.71,SW,216,1.0,-999.0,70,-99.99,,,-99.99,,2013-03-25 13:13:00,
2013-03-25 07:22:00,-2.0,-9.0,30.71,NW,311,0.0,-999.0,70,-99.99,,,-99.99,,2013-03-25 13:22:00,
2013-03-25 07:32:00,-2.0,-9.0,30.71,SSW,211,0.0,-999.0,70,-99.99,,,-99.99,,2013-03-25 13:32:00,
2013-03-25 07:42:00,-2.0,-9.0,30.71,SSW,211,0.0,-999.0,70,-99.99,,,-99.99,,2013-03-25 13:42:00,
2013-03-25 07:52:00,-2.0,-9.0,30.71,SSW,211,0.0,-999.0,70,-99.99,,,-99.99,,2013-03-25 13:52:00,
2013-03-25 08:03:00,-1.0,-9.0,30.72,NW,324,0.0,-999.0,69,-99.99,,,-99.99,,2013-03-25 14:03:00,
2013-03-25 08:12:00,-1.0,-9.0,30.72,NW,324,0.0,-999.0,69,-99.99,,,-99.99,,2013-03-25 14:12:00,
2013-03-25 08:22:00,0.0,-8.0,30.72,SSW,209,0.0,-999.0,68,-99.99,,,-99.99,,2013-03-25 14:22:00,
2013-03-25 08:32:00,1.0,-8.0,30.73,North,9,0.0,-999.0,66,-99.99,,,-99.99,,2013-03-25 14:32:00,
2013-03-25 08:42:00,1.0,-8.0,30.73,North,9,0.0,-999.0,66,-99.99,,,-99.99,,2013-03-25 14:42:00,
2013-03-25 08:52:00,3.0,-6.0,30.73,ESE,123,1.0,-999.0,64,-99.99,,,-99.99,,2013-03-25 14:52:00,
2013-03-25 09:02:00,4.0,-6.0,30.73,East,85,1.0,-999.0,63,-99.99,,,-99.99,,2013-03-25 15:02:00,
2013-03-25 09:13:00,4.0,-6.0,30.73,East,85,1.0,-999.0,63,-99.99,,,-99.99,,2013-03-25 15:13:00,
2013-03-25 09:22:00,5.0,-6.0,30.73,ENE,63,2.0,-999.0,60,-99.99,,,-99.99,,2013-03-25 15:22:00,
2013-03-25 09:33:00,6.0,-6.0,30.73,NE,39,2.0,-999.0,58,-99.99,,,-99.99,,2013-03-25 15:33:00,
2013-03-25 09:42:00,6.0,-6.0,30.73,NE,39,2.0,-999.0,58,-99.99,,,-99.99,,2013-03-25 15:42:00,
2013-03-25 09:53:00,7.0,-4.0,30.73,SE,140,1.0,-999.0,59,-99.99,,,-99.99,,2013-03-25 15:53:00,
2013-03-25 10:03:00,8.0,-4.0,30.74,East,90,2.0,-999.0,56,-99.99,,,-99.99,,2013-03-25 16:03:00,
2013-03-25 10:12:00,8.0,-4.0,30.74,East,90,2.0,-999.0,56,-99.99,,,-99.99,,2013-03-25 16:12:00,
2013-03-25 10:23:00,8.0,-4.0,30.74,East,90,2.0,-999.0,56,-99.99,,,-99.99,,2013-03-25 16:23:00,
2013-03-25 10:33:00,10.0,-4.0,30.74,SW,223,2.0,-999.0,53,-99.99,,,-99.99,,2013-03-25 16:33:00,
2013-03-25 10:43:00,10.0,-4.0,30.74,SW,223,2.0,-999.0,53,-99.99,,,-99.99,,2013-03-25 16:43:00,
2013-03-25 10:53:00,11.0,-4.0,30.74,NW,306,2.0,-999.0,51,-99.99,,,-99.99,,2013-03-25 16:53:00,
2013-03-25 11:02:00,12.0,-3.0,30.74,SW,233,2.0,-999.0,50,-99.99,,,-99.99,,2013-03-25 17:02:00,
2013-03-25 11:12:00,12.0,-3.0,30.74,SW,233,2.0,-999.0,50,-99.99,,,-99.99,,2013-03-25 17:12:00,
2013-03-25 11:23:00,13.0,-3.0,30.75,ENE,78,2.0,-999.0,49,-99.99,,,-99.99,,2013-03-25 17:23:00,
2013-03-25 11:33:00,12.0,-3.0,30.75,South,175,3.0,-999.0,50,-99.99,,,-99.99,,2013-03-25 17:33:00,
2013-03-25 11:42:00,12.0,-3.0,30.75,South,175,3.0,-999.0,50,-99.99,,,-99.99,,2013-03-25 17:42:00,
2013-03-25 11:52:00,13.0,-2.0,30.74,SSW,192,2.0,-999.0,51,-99.99,,,-99.99,,2013-03-25 17:52:00,
2013-03-25 12:03:00,13.0,-2.0,30.74,SSW,205,2.0,-999.0,50,-99.99,,,-99.99,,2013-03-25 18:03:00,
2013-03-25 12:12:00,13.0,-2.0,30.74,SSW,205,2.0,-999.0,50,-99.99,,,-99.99,,2013-03-25 18:12:00,
2013-03-25 12:22:00,15.0,-1.0,30.74,East,94,2.0,-999.0,48,-99.99,,,-99.99,,2013-03-25 18:22:00,
2013-03-25 12:33:00,15.0,-1.0,30.74,SE,139,2.0,-999.0,48,-99.99,,,-99.99,,2013-03-25 18:33:00,
2013-03-25 12:42:00,15.0,-1.0,30.74,SE,139,2.0,-999.0,48,-99.99,,,-99.99,,2013-03-25 18:42:00,
2013-03-25 12:52:00,15.0,-1.0,30.74,SE,139,2.0,-999.0,48,-99.99,,,-99.99,,2013-03-25 18:52:00,
2013-03-25 13:03:00,17.0,0.0,30.73,SW,229,2.0,-999.0,46,-99.99,,,-99.99,,2013-03-25 19:03:00,
2013-03-25 13:13:00,17.0,0.0,30.73,SW,229,2.0,-999.0,46,-99.99,,,-99.99,,2013-03-25 19:13:00,
2013-03-25 13:23:00,17.0,0.0,30.73,ESE,111,3.0,-999.0,47,-99.99,,,-99.99,,2013-03-25 19:23:00,
2013-03-25 13:33:00,18.0,0.0,30.72,South,178,3.0,-999.0,45,-99.99,,,-99.99,,2013-03-25 19:33:00,
2013-03-25 13:42:00,18.0,0.0,30.72,South,178,3.0,-999.0,45,-99.99,,,-99.99,,2013-03-25 19:42:00,
2013-03-25 13:52:00,19.0,-1.0,30.72,WSW,258,3.0,-999.0,41,-99.99,,,-99.99,,2013-03-25 19:52:00,
2013-03-25 14:02:00,19.0,-1.0,30.71,ENE,62,3.0,-999.0,41,-99.99,,,-99.99,,2013-03-25 20:02:00,
2013-03-25 14:12:00,19.0,-1.0,30.71,ENE,62,3.0,-999.0,41,-99.99,,,-99.99,,2013-03-25 20:12:00,
2013-03-25 14:22:00,20.0,0.0,30.72,ESE,104,3.0,-999.0,40,-99.99,,,-99.99,,2013-03-25 20:22:00,
2013-03-25 14:32:00,20.0,0.0,30.71,ESE,103,3.0,-999.0,41,-99.99,,,-99.99,,2013-03-25 20:32:00,
2013-03-25 14:42:00,20.0,0.0,30.71,ESE,103,3.0,-999.0,41,-99.99,,,-99.99,,2013-03-25 20:42:00,
2013-03-25 14:52:00,21.0,2.0,30.71,SE,132,3.0,-999.0,43,-99.99,,,-99.99,,2013-03-25 20:52:00,
2013-03-25 15:02:00,21.0,-2.0,30.70,ESE,116,3.0,-999.0,35,-99.99,,,-99.99,,2013-03-25 21:02:00,
2013-03-25 15:12:00,21.0,-2.0,30.70,ESE,116,3.0,-999.0,35,-99.99,,,-99.99,,2013-03-25 21:12:00,
2013-03-25 15:22:00,20.0,-4.0,30.69,SSE,156,3.0,-999.0,33,-99.99,,,-99.99,,2013-03-25 21:22:00,
2013-03-25 15:33:00,21.0,-2.0,30.69,SE,129,2.0,-999.0,36,-99.99,,,-99.99,,2013-03-25 21:33:00,
2013-03-25 15:42:00,21.0,-2.0,30.69,SE,129,2.0,-999.0,36,-99.99,,,-99.99,,2013-03-25 21:42:00,
2013-03-25 15:52:00,21.0,0.0,30.69,SE,135,3.0,-999.0,39,-99.99,,,-99.99,,2013-03-25 21:52:00,
2013-03-25 16:03:00,21.0,-2.0,30.70,East,100,3.0,-999.0,35,-99.99,,,-99.99,,2013-03-25 22:03:00,
2013-03-25 16:12:00,21.0,-2.0,30.70,East,100,3.0,-999.0,35,-99.99,,,-99.99,,2013-03-25 22:12:00,
2013-03-25 16:23:00,21.0,0.0,30.70,ESE,107,1.0,-999.0,39,-99.99,,,-99.99,,2013-03-25 22:23:00,
2013-03-25 16:33:00,21.0,0.0,30.68,ESE,115,1.0,-999.0,39,-99.99,,,-99.99,,2013-03-25 22:33:00,
2013-03-25 16:42:00,21.0,0.0,30.68,ESE,115,1.0,-999.0,39,-99.99,,,-99.99,,2013-03-25 22:42:00,
2013-03-25 16:52:00,21.0,-1.0,30.68,West,276,2.0,-999.0,37,-99.99,,,-99.99,,2013-03-25 22:52:00,
2013-03-25 17:03:00,21.0,0.0,30.68,SSW,213,1.0,-999.0,39,-99.99,,,-99.99,,2013-03-25 23:03:00,
2013-03-25 17:12:00,21.0,0.0,30.68,SSW,213,1.0,-999.0,39,-99.99,,,-99.99,,2013-03-25 23:12:00,
2013-03-25 17:23:00,21.0,2.0,30.68,ENE,57,2.0,-999.0,42,-99.99,,,-99.99,,2013-03-25 23:23:00,
2013-03-25 17:32:00,20.0,-2.0,30.66,SE,132,1.0,-999.0,37,-99.99,,,-99.99,,2013-03-25 23:32:00,
2013-03-25 17:42:00,20.0,-2.0,30.66,SE,132,1.0,-999.0,37,-99.99,,,-99.99,,2013-03-25 23:42:00,
2013-03-25 17:52:00,21.0,-1.0,30.67,East,92,2.0,-999.0,38,-99.99,,,-99.99,,2013-03-25 23:52:00,
2013-03-25 18:02:00,20.0,-3.0,30.67,ENE,62,1.0,-999.0,36,-99.99,,,-99.99,,2013-03-26 00:02:00,
2013-03-25 18:12:00,20.0,-3.0,30.67,ENE,62,1.0,-999.0,36,-99.99,,,-99.99,,2013-03-26 00:12:00,
2013-03-25 18:22:00,20.0,-4.0,30.67,East,89,2.0,-999.0,34,-99.99,,,-99.99,,2013-03-26 00:22:00,
2013-03-25 18:32:00,19.0,-4.0,30.68,NE,50,1.0,-999.0,35,-99.99,,,-99.99,,2013-03-26 00:32:00,
2013-03-25 18:42:00,19.0,-4.0,30.68,NE,50,1.0,-999.0,35,-99.99,,,-99.99,,2013-03-26 00:42:00,
2013-03-25 18:52:00,19.0,-1.0,30.68,SE,127,1.0,-999.0,40,-99.99,,,-99.99,,2013-03-26 00:52:00,
2013-03-25 19:02:00,18.0,-2.0,30.68,East,86,0.0,-999.0,41,-99.99,,,-99.99,,2013-03-26 01:02:00,
2013-03-25 19:12:00,18.0,-2.0,30.68,East,86,0.0,-999.0,41,-99.99,,,-99.99,,2013-03-26 01:12:00,
2013-03-25 19:22:00,17.0,-1.0,30.68,East,87,1.0,-999.0,44,-99.99,,,-99.99,,2013-03-26 01:22:00,
2013-03-25 19:32:00,16.0,-1.0,30.68,East,86,1.0,-999.0,47,-99.99,,,-99.99,,2013-03-26 01:32:00,
2013-03-25 19:42:00,16.0,-1.0,30.68,East,86,1.0,-999.0,47,-99.99,,,-99.99,,2013-03-26 01:42:00,
2013-03-25 19:52:00,14.0,-2.0,30.68,East,86,1.0,-999.0,47,-99.99,,,-99.99,,2013-03-26 01:52:00,
2013-03-25 20:02:00,13.0,-3.0,30.69,East,86,0.0,-999.0,49,-99.99,,,-99.99,,2013-03-26 02:02:00,
2013-03-25 20:12:00,13.0,-3.0,30.69,East,86,0.0,-999.0,49,-99.99,,,-99.99,,2013-03-26 02:12:00,
2013-03-25 20:22:00,12.0,-3.0,30.68,East,86,0.0,-999.0,51,-99.99,,,-99.99,,2013-03-26 02:22:00,
2013-03-25 20:32:00,11.0,-2.0,30.70,East,86,0.0,-999.0,55,-99.99,,,-99.99,,2013-03-26 02:32:00,
2013-03-25 20:42:00,11.0,-2.0,30.70,East,86,0.0,-999.0,55,-99.99,,,-99.99,,2013-03-26 02:42:00,
2013-03-25 20:52:00,9.0,-3.0,30.70,East,86,0.0,-999.0,56,-99.99,,,-99.99,,2013-03-26 02:52:00,
2013-03-25 21:02:00,8.0,-3.0,30.69,East,86,0.0,-999.0,60,-99.99,,,-99.99,,2013-03-26 03:02:00,
2013-03-25 21:12:00,8.0,-3.0,30.69,East,86,0.0,-999.0,60,-99.99,,,-99.99,,2013-03-26 03:12:00,
2013-03-25 21:22:00,6.0,-5.0,30.70,East,86,0.0,-999.0,61,-99.99,,,-99.99,,2013-03-26 03:22:00,
2013-03-25 21:33:00,5.0,-5.0,30.69,East,86,1.0,-999.0,62,-99.99,,,-99.99,,2013-03-26 03:33:00,
2013-03-25 21:42:00,5.0,-5.0,30.69,East,86,1.0,-999.0,62,-99.99,,,-99.99,,2013-03-26 03:42:00,
2013-03-25 21:52:00,4.0,-5.0,30.69,East,86,0.0,-999.0,64,-99.99,,,-99.99,,2013-03-26 03:52:00,
2013-03-25 22:03:00,4.0,-5.0,30.69,East,86,0.0,-999.0,64,-99.99,,,-99.99,,2013-03-26 04:03:00,
2013-03-25 22:12:00,4.0,-5.0,30.69,East,86,0.0,-999.0,64,-99.99,,,-99.99,,2013-03-26 04:12:00,
2013-03-25 22:23:00,3.0,-5.0,30.69,East,86,0.0,-999.0,67,-99.99,,,-99.99,,2013-03-26 04:23:00,
2013-03-25 22:32:00,4.0,-5.0,30.68,East,86,0.0,-999.0,66,-99.99,,,-99.99,,2013-03-26 04:32:00,
2013-03-25 22:43:00,4.0,-5.0,30.68,East,86,0.0,-999.0,66,-99.99,,,-99.99,,2013-03-26 04:43:00,
2013-03-25 22:52:00,3.0,-5.0,30.69,East,86,0.0,-999.0,67,-99.99,,,-99.99,,2013-03-26 04:52:00,
2013-03-25 23:02:00,3.0,-5.0,30.68,East,86,0.0,-999.0,68,-99.99,,,-99.99,,2013-03-26 05:02:00,
2013-03-25 23:12:00,3.0,-5.0,30.68,East,86,0.0,-999.0,68,-99.99,,,-99.99,,2013-03-26 05:12:00,
2013-03-25 23:22:00,2.0,-6.0,30.68,East,86,1.0,-999.0,68,-99.99,,,-99.99,,2013-03-26 05:22:00,
2013-03-25 23:32:00,2.0,-6.0,30.68,East,86,1.0,-999.0,68,-99.99,,,-99.99,,2013-03-26 05:32:00,
2013-03-25 23:42:00,2.0,-6.0,30.68,East,86,1.0,-999.0,68,-99.99,,,-99.99,,2013-03-26 05:42:00,
2013-03-25 23:52:00,1.0,-7.0,30.68,East,84,1.0,-999.0,67,-99.99,,,-99.99,,2013-03-26 05:52:00,